Regional Weather Roundup
Issued by NWS

Home | Current Version | Previous Version | Text Only | Print | Product List | Glossary Off
Versions: 1 2 3 4 5 6 7 8 9 10 11 12 13 14 15 16 17 18 19 20 21 22 23 24 25 26 27 28 29 30 31 32 33 34 35 36 37 38 39 40 41 42 43 44 45 46 47 48 49 50

000
ASUS43 KFSD 050602
RWRSD

WEATHER ROUNDUP FOR SOUTH DAKOTA
NATIONAL WEATHER SERVICE SIOUX FALLS SD
100 AM CDT TUE MAY 05 2015

NOTE: "FAIR" INDICATES FEW OR NO CLOUDS BELOW 12,000 FEET WITH NO
SIGNIFICANT WEATHER AND/OR OBSTRUCTIONS TO VISIBILITY.


SDZ001>005-009-010-012>017-050700-
NORTHWEST AND NORTH CENTRAL SOUTH DAKOTA

CITY           SKY/WX    TMP DP  RH WIND       PRES   REMARKS
BUFFALO          N/A     46  30  53 SE17      29.99S
FAITH            N/A     51  29  42 SE12      30.08F
MOBRIDGE       CLOUDY    57  25  29 SE8       30.09F
$$

SDZ012>016-024>037-041>051-057-063-072>074-050700-
SOUTHWEST AND SOUTH CENTRAL SOUTH DAKOTA

CITY           SKY/WX    TMP DP  RH WIND       PRES   REMARKS
RAPID CTY ARPT CLOUDY    47  37  68 S5        30.08F
PIERRE         CLOUDY    55  27  34 E7        30.10R
CUSTER         CLOUDY    44  26  49 SE5       30.12F
ELLSWORTH AFB  MOCLDY    47  37  67 S6        30.08F
PHILIP         CLOUDY    47  25  42 NE3       30.09F
PINE RIDGE     PTCLDY    42  31  64 CALM      30.10F
WINNER         FAIR      53  34  48 SE5       30.11F
$$

SDZ004>011-016>023-039-040-050700-
NORTHEAST SOUTH DAKOTA

CITY           SKY/WX    TMP DP  RH WIND       PRES   REMARKS
ABERDEEN       PTCLDY    51  30  44 E8        30.15S
WATERTOWN      PTCLDY    55  28  35 E9        30.17S
BROOKINGS      PTCLDY    55  28  35 E8        30.18S
SISSETON         N/A     45  36  70 S3        30.18S
$$

SDZ017-020-022-023-036>040-048>070-050700-
SOUTHEAST SOUTH DAKOTA

CITY           SKY/WX    TMP DP  RH WIND       PRES   REMARKS
SIOUX FALLS    MOCLDY    51  31  46 E7        30.15S
HURON          CLEAR     54  31  41 SE8       30.13S
MITCHELL       CLEAR     50  35  56 SE6       30.14R
YANKTON        PTCLDY    50  43  76 N6        30.12F
$$

ABBREVIATIONS USED IN REMARKS
   TC - TEMPERATURE IN CELSIUS
  WCI - WIND CHILL INDEX
   HX - HEAT INDEX
  VSB - VISIBILITY




USA.gov is the U.S. government's official web portal to all federal, state and local government web resources and services.